Dati Storici

Data ora Umidita' aria (%) Temperatura aria (°C) Rad globale (W/m²) Gonioanemometro (°) Tacoanemometro (m/s) Pioggia (mm)
03-11-2012 17:30 88.1 % 12.675 9.047 42.96 0.761 0
03-11-2012 17:20 88.5 % 12.696 17.098 31.657 1.39 0
03-11-2012 17:10 88.6 % 12.705 22.08 18.007 1.671 0
03-11-2012 17:00 88.4 % 12.733 29.857 8.859 1.746 0
03-11-2012 16:50 88 % 12.829 69.464 2.654 1.566 0
03-11-2012 16:40 88.3 % 12.854 79.992 17.461 1.076 0
03-11-2012 16:30 87.9 % 12.756 48.315 14.142 1.547 0
03-11-2012 16:20 87.5 % 12.764 39.224 55.727 1.909 0
03-11-2012 16:10 87.5 % 12.851 51.772 33.099 1.842 0
03-11-2012 16:00 87.3 % 12.764 87.749 38.789 1.049 0
03-11-2012 15:50 87.4 % 12.732 119.546 27.701 1.668 0
03-11-2012 15:40 87.6 % 12.717 95.488 353.155 1.499 0
03-11-2012 15:30 87.7 % 12.584 97.401 29.538 0.882 0
03-11-2012 15:20 87.4 % 12.47 62.074 26.719 1.655 0
03-11-2012 15:10 86.8 % 12.493 67.196 41.755 1.664 0
03-11-2012 15:00 86.5 % 12.621 85.724 35.448 0.412 0
03-11-2012 14:50 85.7 % 12.503 91.304 2.307 1.546 0
03-11-2012 14:40 86.2 % 12.737 104.274 37.947 0.842 0
03-11-2012 14:30 86.6 % 12.782 95.538 37.347 0.601 0
03-11-2012 14:20 86.9 % 12.809 96.13 340.338 1.244 0

I dati sono presentati in modo automatico a scopo informativo. In seguito a verifica i dati possono subire modifiche o essere invalidati e non riportati negli archivi definitivi.